Terminal Aerodrome Forecast
Issued by NWS Billings, MT

Home | Current Version | Previous Version | Text Only | Print | Product List | Glossary On
Versions: 1 2 3 4 5 6 7 8 9 10 11 12 13 14 15 16 17 18 19
000
FTUS45 KBYZ 231027 AAB
TAFSHR
TAF AMD
KSHR 231027Z 2310/2406 32013KT P6SM SCT200
     FM231600 32027G33KT P6SM SKC
     FM232300 33021G30KT P6SM SKC
     FM240000 32012KT P6SM SKC=

USA.gov is the U.S. government's official web portal to all federal, state and local government web resources and services.